Regional Weather Roundup
Issued by NWS

Home | Current Version | Previous Version | Graphics & Text | Print | Product List | Glossary Off
Versions: 1 2 3 4 5 6 7 8 9 10 11 12 13 14 15 16 17 18 19 20 21 22 23 24 25 26 27 28 29 30 31 32 33 34 35 36 37 38 39 40 41 42 43 44 45 46 47 48 49 50

000
ASUS43 KMKX 221110
RWRWI

WISCONSIN REGIONAL WEATHER ROUNDUP
NATIONAL WEATHER SERVICE MILWAUKEE/SULLIVAN WI
500 AM CST THU FEB 22 2018

NOTE: "FAIR" INDICATES FEW OR NO CLOUDS BELOW 12,000 FEET WITH NO
SIGNIFICANT WEATHER AND/OR OBSTRUCTIONS TO VISIBILITY.

WIZ001-002-006>008-014>016-023>028-221200-
NORTHWEST WISCONSIN

CITY           SKY/WX    TMP DP  RH WIND       PRES   REMARKS
SUPERIOR ARPT  FAIR      -6 -10  83 CALM      30.64S
ASHLAND        FAIR      -3  -6  87 SW6       30.64R WCI -15
HAYWARD        FAIR      -8 -13  78 N3        30.60R
SIREN          FAIR     -11 -16  76 CALM      30.62S
CUMBERLAND     FAIR      -6  -9  84 CALM      30.60R
RICE LAKE      FAIR      -5  -9  84 CALM      30.63R
CHETEK         FAIR      -2  -6  84 E5        30.63R WCI -12
LADYSMITH      FAIR      -1  -5  83 CALM      30.61R
EAU CLAIRE     FAIR       5   1  83 N3        30.62R
MENOMONIE      FAIR       4   1  83 CALM      30.63R
NEW RICHMOND   FAIR      -3  -8  81 CALM      30.62R
OSCEOLA        MOCLDY    -1  -5  84 CALM      30.65R
$$

WIZ003>005-009-010-017-018-221200-
NORTH CENTRAL WISCONSIN

CITY           SKY/WX    TMP DP  RH WIND       PRES   REMARKS
MANITOWISH WTR FAIR     -11 -15  82 CALM      30.56R
ARBOR VITAE    FAIR      -1  -5  84 CALM      30.56R
WOODRUFF       FAIR      -1  -5  84 CALM      30.56R
RHINELANDER    FAIR       5   1  83 CALM      30.56R
EAGLE RIVER    FAIR      -4  -9  77 CALM      30.56R
LAND O LAKES   FAIR     -11 -16  78 CALM      30.58R
PHILLIPS       FAIR      -5  -8  84 CALM      30.57R
TOMAHAWK       MOCLDY     0  -4  84 CALM      30.59R
MEDFORD        CLOUDY     5   0  81 CALM      30.57R
MERRILL        FAIR       5   1  84 CALM      30.61R
$$

WIZ029-030-035-036-043>047-221200-
CENTRAL WISCONSIN

CITY           SKY/WX    TMP DP  RH WIND       PRES   REMARKS
WAUSAU         FAIR       6   3  87 CALM      30.60R
MOSINEE        FAIR      10   5  79 CALM      30.62R
MARSHFIELD     FAIR      10   3  73 E3        30.59R
STEVENS POINT  CLOUDY    11   8  86 CALM      30.63R
WAUPACA        CLOUDY    19  12  73 CALM      30.65R
WAUTOMA        CLOUDY    18  12  77 N5        30.63R WCI  11
WISC RAPIDS    CLOUDY    15   7  70 CALM      30.63R
CAMP DOUGLAS   FAIR      19  14  81 CALM      30.61R
$$

WIZ011>013-019>022-031-037>040-048>050-221200-
NORTHEAST WISCONSIN

CITY           SKY/WX    TMP DP  RH WIND       PRES   REMARKS
ANTIGO         FAIR       7   2  82 CALM      30.59R
SHAWANO        CLOUDY    17  10  74 CALM      30.64R
OCONTO         FAIR      17  10  74 CALM      30.65R
STURGEON BAY   FAIR      19  12  74 N3        30.64R
GREEN BAY      FAIR      20  10  65 CALM      30.65R
MANITOWOC      CLOUDY    21  15  78 N7        30.62S WCI  12
APPLETON       MOCLDY    19   9  63 N6        30.61R WCI  11
CLINTONVILLE   CLOUDY    16   8  69 CALM      30.65R
OSHKOSH        CLOUDY    21  12  68 N6        30.62R WCI  13
$$

WIZ032>034-041-042-053>061-221200-
SOUTHWEST WISCONSIN

CITY           SKY/WX    TMP DP  RH WIND       PRES   REMARKS
LA CROSSE      CLOUDY    20  16  84 NW6       30.62R WCI  12
SPARTA         CLOUDY    19  15  83 NE6       30.62S WCI  11
VIROQUA        CLOUDY    20  18  90 E6        30.56R WCI  13
BOSCOBEL       CLOUDY    25  15  66 NE6       30.59F WCI  18
PRAIRIE DU CHI CLOUDY    24  13  63 N3        30.59R
PLATTEVILLE    FAIR      24  17  74 NE9       30.55R WCI  14
$$

WIZ056-057-062-063-064-067-068-221200-
SOUTH CENTRAL WISCONSIN

CITY           SKY/WX    TMP DP  RH WIND       PRES   REMARKS
REEDSBURG      CLOUDY    21  13  72 NE5       30.60R WCI  14
BARABOO/DELLS  CLOUDY    20  13  73 NE5       30.59F WCI  14
LONE ROCK      CLOUDY    24  15  68 NE8       30.60F WCI  15
MINERAL POINT  FAIR      25  18  74 NE8       30.55R WCI  16
MADISON        FAIR      22  13  68 N7        30.59R WCI  13
MIDDLETON      CLOUDY    24  16  73 NE7       30.59R WCI  16
WATERTOWN      MOCLDY    24  17  74 NE5       30.57S WCI  18
MONROE         FAIR      25  18  74 NE13      30.54R WCI  13
JANESVILLE     FAIR      27  19  74 NE6       30.56S WCI  20
$$

WIZ051-052-058>065-066-070>072-221200-
SOUTHEAST WISCONSIN

CITY           SKY/WX    TMP DP  RH WIND       PRES   REMARKS
MILWAUKEE      CLOUDY    30  23  75 E12       30.58R WCI  20
WAUKESHA       FAIR      23  18  80 NE5       30.58R WCI  17
MILWAUKEE/TIMM MOCLDY    27  18  69 NE5       30.59R WCI  21
RACINE         FAIR      30  22  72 NE10      30.59S WCI  21
BURLINGTON     FAIR      26  19  76 NE3       30.57S
KENOSHA        FAIR      30  22  72 NE13      30.57S WCI  20
FOND DU LAC    CLOUDY    22  12  65 N6        30.61R WCI  14
SHEBOYGAN      CLOUDY    23  16  74 N6        30.59S WCI  16
WEST BEND      CLOUDY    23  19  86 NE3       30.59R
JUNEAU         CLOUDY    22  14  73 N6        30.59S WCI  14
$$

LSZ147-162-221200-
LAKE SUPERIOR

STATION/POSITION TIME  TEMP    WIND        PRES    WAVE
                       AIR SEA DIR/SP/G            HT/PER
                 (UTC) (F)     (DEG/KT/KT) (MB)    (FT/S)
DEVILS ISLAND    1100   11     190/  8/ 10 1038.6R
SAXON HARBOR     1040   -1     190/  5/  6 1036.9S
$$

LMZ867-665-643>646-221200-
LAKE MICHIGAN

STATION/POSITION TIME  TEMP    WIND        PRES    WAVE
                       AIR SEA DIR/SP/G            HT/PER
                 (UTC) (F)     (DEG/KT/KT) (MB)    (FT/S)
NORTHPORT PIER   1040   21                 1036.9F
KEWAUNEE LAKESHO 1048   22     330/  4/  6 1035.9F
SHEBOYGAN LAKESH 1100   29      40/ 10/ 12 1037.2R
PORT WASHINGTON  1040   26      10/  4/  8 1036.9R
MILWAUKEE LAKESH 1050   30      60/ 14/ 15   N/A
KENOSHA   LAKESH 1100   31      50/ 10/ 13 1035.2
$$

TC  - TEMPERATURE IN CELSIUS
VSB - VISIBILITY IN STATUTE MILES
WCI - WIND CHILL INDEX
HX  - HEAT INDEX





USA.gov is the U.S. government's official web portal to all federal, state and local government web resources and services.